Torna al catalogo

STARLINK-5654

AttivoComunicazioniVLEO
NORAD 55366·PAYLOAD·🇺🇸 United States

Lanciato Jan 26, 2023 da Cape Canaveral Space Force Station

Loading…

Prossimi Passaggi (prossime 24 ore)

TLE

AggiornatoSource: CelesTrak SupGP

Epoca: Sep 14, 2026, 21:25 UTC

1 55366C 23013AM  26257.89284722 -.00018207  00000+0 -65957-3 0  2579
2 55366  43.0027 299.9484 0001485 292.8551  17.5438 15.27582037    17

Traccia STARLINK-5654 in tempo reale con AllMySat

Download on the App Store